UAE323 LOWW-EDDF

Flight info

Callsign UAE323
Flight time N/A
Altitude 34000
Route BUWUT DCT DITIS DCT RAPET T170 VAGAB/N0418F240 T170 GAPLA T178 KERAX KERAX5D
Aircraft B77W/H-SDE1E2E3FGHIJ2J3J4J5M1RWXY/LB1D1

Departure

Time 2026-04-22 19:08
Airport Vienna International Airport (LOWW)

Arrival

Time N/A
Airport Frankfurt Main Airport (EDDF)
Time Latitude Longitude Altitude Speed Heading
2026-04-22 18:32 48.11772 16.56593 614 ft 0 kts 25°
2026-04-22 18:44 48.11767 16.56590 615 ft 2 kts 25°
2026-04-22 18:44 48.11752 16.56581 630 ft 2 kts 18°
2026-04-22 18:44 48.11736 16.56574 630 ft 2 kts
2026-04-22 18:45 48.11719 16.56572 630 ft 2 kts 356°
2026-04-22 18:45 48.11703 16.56576 630 ft 2 kts 336°
2026-04-22 18:45 48.11689 16.56589 630 ft 2 kts 313°
2026-04-22 18:45 48.11680 16.56607 630 ft 1 kts 297°
2026-04-22 18:46 48.11678 16.56612 630 ft 0 kts 296°
2026-04-22 18:48 48.11682 16.56601 630 ft 3 kts 296°
2026-04-22 18:48 48.11692 16.56569 630 ft 4 kts 296°
2026-04-22 18:49 48.11705 16.56529 630 ft 5 kts 296°
2026-04-22 18:49 48.11721 16.56481 626 ft 6 kts 296°
2026-04-22 18:49 48.11733 16.56446 626 ft 2 kts 296°
2026-04-22 18:49 48.11734 16.56443 630 ft 0 kts 296°
2026-04-22 18:52 48.11750 16.56383 627 ft 7 kts 286°
2026-04-22 18:52 48.11745 16.56325 629 ft 5 kts 239°
2026-04-22 18:52 48.11732 16.56308 615 ft 0 kts 216°
2026-04-22 18:54 48.11690 16.56271 624 ft 17 kts 204°
2026-04-22 18:54 48.11637 16.56226 626 ft 9 kts 215°
2026-04-22 18:54 48.11577 16.56207 626 ft 9 kts 162°
2026-04-22 18:54 48.11535 16.56280 627 ft 10 kts 120°
2026-04-22 18:55 48.11503 16.56376 618 ft 11 kts 115°
2026-04-22 18:55 48.11471 16.56477 627 ft 11 kts 116°
2026-04-22 18:55 48.11433 16.56594 627 ft 13 kts 116°
2026-04-22 18:55 48.11391 16.56720 629 ft 13 kts 116°
2026-04-22 18:56 48.11350 16.56843 627 ft 13 kts 116°
2026-04-22 18:56 48.11310 16.56967 625 ft 13 kts 116°
2026-04-22 18:56 48.11269 16.57091 629 ft 13 kts 116°
2026-04-22 18:56 48.11229 16.57212 625 ft 13 kts 116°
2026-04-22 18:57 48.11190 16.57333 622 ft 12 kts 116°
2026-04-22 18:57 48.11178 16.57368 627 ft 0 kts 116°
2026-04-22 18:58 48.11169 16.57395 624 ft 12 kts 116°
2026-04-22 18:59 48.11163 16.57413 626 ft 0 kts 116°
2026-04-22 18:59 48.11151 16.57450 625 ft 9 kts 116°
2026-04-22 18:59 48.11143 16.57476 626 ft 1 kts 116°
2026-04-22 18:59 48.11137 16.57494 624 ft 3 kts 115°
2026-04-22 19:00 48.11125 16.57532 621 ft 9 kts 116°
2026-04-22 19:00 48.11083 16.57623 627 ft 8 kts 145°
2026-04-22 19:00 48.11042 16.57632 617 ft 0 kts 190°
2026-04-22 19:07 48.10966 16.57374 627 ft 16 kts 295°
2026-04-22 19:07 48.10979 16.57333 614 ft 0 kts 296°
2026-04-22 19:08 48.11017 16.57219 623 ft 48 kts 296°
2026-04-22 19:08 48.11373 16.56155 631 ft 179 kts 300°
2026-04-22 19:08 48.12044 16.54267 1789 ft 217 kts 301°
2026-04-22 19:08 48.12759 16.52180 3750 ft 237 kts 300°
2026-04-22 19:09 48.13301 16.49551 4765 ft 295 kts 276°
2026-04-22 19:09 48.12969 16.46614 5252 ft 288 kts 251°
2026-04-22 19:09 48.11908 16.44102 5243 ft 279 kts 241°
2026-04-22 19:09 48.11330 16.41452 5235 ft 265 kts 276°
2026-04-22 19:10 48.11776 16.38865 5247 ft 254 kts 296°
2026-04-22 19:10 48.12406 16.36358 5245 ft 261 kts 291°
2026-04-22 19:10 48.12878 16.33713 5380 ft 265 kts 287°
2026-04-22 19:10 48.13241 16.31004 6106 ft 265 kts 284°
2026-04-22 19:11 48.13553 16.28284 6896 ft 266 kts 283°
2026-04-22 19:11 48.13849 16.25539 7586 ft 269 kts 283°
2026-04-22 19:11 48.14180 16.22784 8205 ft 268 kts 290°
2026-04-22 19:11 48.15131 16.20419 8728 ft 267 kts 319°
2026-04-22 19:12 48.16653 16.18883 9469 ft 264 kts 336°
2026-04-22 19:12 48.18313 16.17681 10176 ft 267 kts 336°
2026-04-22 19:12 48.19994 16.16461 10806 ft 269 kts 336°
2026-04-22 19:12 48.21687 16.15221 11150 ft 272 kts 336°
2026-04-22 19:13 48.23396 16.13962 11486 ft 274 kts 336°
2026-04-22 19:13 48.25116 16.12693 12558 ft 278 kts 337°
2026-04-22 19:13 48.26833 16.11337 13655 ft 283 kts 329°
2026-04-22 19:13 48.28350 16.09347 14572 ft 294 kts 320°
2026-04-22 19:14 48.29807 16.07156 15562 ft 299 kts 320°
2026-04-22 19:14 48.31282 16.04917 16600 ft 304 kts 320°
2026-04-22 19:14 48.32786 16.02645 17620 ft 310 kts 320°
2026-04-22 19:14 48.34324 16.00338 18610 ft 315 kts 321°
2026-04-22 19:15 48.35362 15.98787 19198 ft 319 kts 321°
2026-04-22 19:15 48.37501 15.95606 20331 ft 328 kts 321°
2026-04-22 19:15 48.39144 15.93169 21219 ft 335 kts 321°
2026-04-22 19:15 48.40818 15.90688 22080 ft 341 kts 321°
2026-04-22 19:16 48.42529 15.88154 22992 ft 348 kts 321°
2026-04-22 19:16 48.44267 15.85578 23875 ft 354 kts 322°
2026-04-22 19:16 48.46027 15.82969 24565 ft 362 kts 322°
2026-04-22 19:16 48.47830 15.80295 25246 ft 370 kts 322°
2026-04-22 19:17 48.49679 15.77550 25936 ft 377 kts 322°
2026-04-22 19:17 48.51563 15.74749 26654 ft 384 kts 322°
2026-04-22 19:17 48.53504 15.71866 27040 ft 402 kts 322°
2026-04-22 19:17 48.55553 15.68828 27190 ft 424 kts 322°
2026-04-22 19:18 48.57705 15.65629 27335 ft 444 kts 322°
2026-04-22 19:18 48.59951 15.62276 27477 ft 464 kts 321°
2026-04-22 19:18 48.62277 15.58789 27774 ft 477 kts 321°
2026-04-22 19:18 48.64655 15.55213 28213 ft 487 kts 321°
2026-04-22 19:19 48.67069 15.51577 28730 ft 493 kts 321°
2026-04-22 19:19 48.69513 15.47893 29299 ft 499 kts 321°
2026-04-22 19:19 48.71984 15.44167 29851 ft 504 kts 321°
2026-04-22 19:19 48.74485 15.40397 30288 ft 510 kts 321°
2026-04-22 19:20 48.77021 15.36574 30264 ft 517 kts 321°
2026-04-22 19:20 48.81893 15.28597 30263 ft 516 kts 313°
2026-04-22 19:20 48.84001 15.24159 30403 ft 522 kts 310°
2026-04-22 19:21 48.86072 15.19604 30904 ft 524 kts 309°
2026-04-22 19:21 48.88156 15.15078 31546 ft 521 kts 310°
2026-04-22 19:21 48.90254 15.10607 32111 ft 519 kts 310°
2026-04-22 19:21 48.92379 15.06193 32744 ft 515 kts 311°
2026-04-22 19:22 48.94509 15.01839 33470 ft 510 kts 311°
2026-04-22 19:22 48.96617 14.97552 34185 ft 505 kts 311°
2026-04-22 19:22 48.98726 14.93264 34279 ft 505 kts 311°
2026-04-22 19:23 49.02867 14.84789 34276 ft 499 kts 311°
2026-04-22 19:23 49.06993 14.76283 34277 ft 500 kts 310°
2026-04-22 19:24 49.11121 14.67734 34278 ft 501 kts 310°
2026-04-22 19:24 49.15246 14.59158 34277 ft 501 kts 310°
2026-04-22 19:25 49.19369 14.50559 34274 ft 502 kts 310°
2026-04-22 19:25 49.23491 14.41937 34279 ft 502 kts 310°
2026-04-22 19:26 49.27612 14.33287 34276 ft 502 kts 310°
2026-04-22 19:26 49.31722 14.24634 34286 ft 502 kts 310°
2026-04-22 19:27 49.35826 14.15966 34286 ft 502 kts 310°
2026-04-22 19:27 49.39922 14.07288 34296 ft 502 kts 310°
2026-04-22 19:28 49.44013 13.98591 34292 ft 502 kts 310°
2026-04-22 19:28 49.48101 13.89872 34295 ft 503 kts 310°
2026-04-22 19:29 49.52179 13.81144 34295 ft 503 kts 310°
2026-04-22 19:29 49.56256 13.72392 34297 ft 503 kts 309°
2026-04-22 19:30 49.59641 13.65102 34299 ft 503 kts 309°
2026-04-22 19:30 49.64397 13.54827 34290 ft 504 kts 309°
2026-04-22 19:31 49.68461 13.46015 34302 ft 504 kts 309°
2026-04-22 19:31 49.72522 13.37179 34289 ft 505 kts 309°
2026-04-22 19:32 49.76580 13.28321 34293 ft 505 kts 309°
2026-04-22 19:32 49.80608 13.19501 34294 ft 505 kts 309°
2026-04-22 19:33 49.84677 13.10557 34301 ft 505 kts 309°
2026-04-22 19:33 49.88723 13.01637 34298 ft 505 kts 309°
2026-04-22 19:34 49.92757 12.92712 34308 ft 505 kts 309°
2026-04-22 19:34 49.96789 12.83761 34299 ft 506 kts 309°
2026-04-22 19:35 50.00818 12.74787 34304 ft 506 kts 309°
2026-04-22 19:35 50.04165 12.67310 34296 ft 507 kts 308°
2026-04-22 19:36 50.08837 12.56834 34300 ft 507 kts 308°
2026-04-22 19:36 50.12877 12.47743 34321 ft 507 kts 308°
2026-04-22 19:37 50.16880 12.38684 34324 ft 508 kts 307°
2026-04-22 19:37 50.20233 12.28926 34319 ft 513 kts 295°
2026-04-22 19:38 50.22630 12.18402 34323 ft 515 kts 291°
2026-04-22 19:38 50.24971 12.07835 34325 ft 515 kts 292°
2026-04-22 19:39 50.27383 11.97302 34314 ft 515 kts 292°
2026-04-22 19:39 50.29791 11.86857 34317 ft 515 kts 292°
2026-04-22 19:40 50.32209 11.76319 34311 ft 515 kts 292°
2026-04-22 19:40 50.34612 11.65771 34321 ft 514 kts 292°
2026-04-22 19:41 50.37005 11.55211 34327 ft 514 kts 292°
2026-04-22 19:41 50.39387 11.44647 34323 ft 513 kts 291°
2026-04-22 19:41 50.40567 11.39394 33934 ft 509 kts 291°
2026-04-22 19:42 50.41733 11.34191 33265 ft 505 kts 291°
2026-04-22 19:42 50.42892 11.29008 32611 ft 501 kts 291°
2026-04-22 19:42 50.44035 11.23869 32007 ft 497 kts 291°
2026-04-22 19:42 50.45166 11.18763 31429 ft 493 kts 291°
2026-04-22 19:43 50.47393 11.08674 30322 ft 486 kts 290°
2026-04-22 19:43 50.48490 11.03688 29716 ft 481 kts 290°
2026-04-22 19:43 50.49575 10.98748 29198 ft 475 kts 290°
2026-04-22 19:44 50.50642 10.93874 28698 ft 469 kts 290°
2026-04-22 19:44 50.51698 10.89053 28186 ft 464 kts 290°
2026-04-22 19:44 50.52740 10.84277 27660 ft 459 kts 290°
2026-04-22 19:44 50.53772 10.79560 27171 ft 455 kts 291°
2026-04-22 19:45 50.54820 10.74894 26673 ft 450 kts 291°
2026-04-22 19:45 50.55867 10.70288 26185 ft 445 kts 291°
2026-04-22 19:45 50.56903 10.65720 25720 ft 441 kts 291°
2026-04-22 19:45 50.57920 10.61197 25246 ft 437 kts 291°
2026-04-22 19:46 50.58919 10.56740 24739 ft 426 kts 291°
2026-04-22 19:46 50.59912 10.52358 24070 ft 426 kts 292°
2026-04-22 19:46 50.60911 10.47971 23491 ft 424 kts 292°
2026-04-22 19:46 50.61898 10.43630 23016 ft 419 kts 292°
2026-04-22 19:47 50.62862 10.39370 22382 ft 410 kts 292°
2026-04-22 19:47 50.63820 10.35130 21741 ft 411 kts 292°
2026-04-22 19:47 50.64388 10.32312 21352 ft 407 kts 285°
2026-04-22 19:47 50.64440 10.26359 20615 ft 410 kts 259°
2026-04-22 19:48 50.63496 10.22154 20190 ft 403 kts 243°
2026-04-22 19:48 50.62627 10.19585 19819 ft 401 kts 242°
2026-04-22 19:48 50.60945 10.14400 19124 ft 401 kts 244°
2026-04-22 19:48 50.59698 10.10485 18706 ft 398 kts 244°
2026-04-22 19:49 50.58862 10.07860 18408 ft 396 kts 244°
2026-04-22 19:49 50.57231 10.02769 17835 ft 391 kts 244°
2026-04-22 19:49 50.56403 10.00198 17529 ft 389 kts 244°
2026-04-22 19:49 50.54786 9.95193 16933 ft 385 kts 244°
2026-04-22 19:50 50.53976 9.92695 16557 ft 376 kts 244°
2026-04-22 19:50 50.52797 9.89067 15726 ft 371 kts 244°
2026-04-22 19:50 50.51624 9.85462 14863 ft 370 kts 244°
2026-04-22 19:50 50.50444 9.81839 14206 ft 374 kts 244°
2026-04-22 19:51 50.49280 9.78269 13833 ft 370 kts 244°
2026-04-22 19:51 50.48115 9.74706 13514 ft 364 kts 244°
2026-04-22 19:51 50.46972 9.71212 13360 ft 354 kts 244°
2026-04-22 19:51 50.45866 9.67838 13328 ft 341 kts 244°
2026-04-22 19:52 50.44919 9.64567 13308 ft 318 kts 252°
2026-04-22 19:52 50.44083 9.61340 13340 ft 323 kts 244°
2026-04-22 19:52 50.43061 9.58213 13335 ft 322 kts 243°
2026-04-22 19:52 50.42004 9.55090 13305 ft 318 kts 243°
2026-04-22 19:53 50.40982 9.52091 13325 ft 315 kts 243°
2026-04-22 19:53 50.39951 9.49060 13329 ft 316 kts 243°
2026-04-22 19:53 50.38919 9.46018 13329 ft 316 kts 243°
2026-04-22 19:53 50.37887 9.42975 13330 ft 317 kts 243°
2026-04-22 19:54 50.36854 9.39923 13325 ft 317 kts 243°
2026-04-22 19:54 50.35819 9.36868 13323 ft 318 kts 243°
2026-04-22 19:54 50.34784 9.33812 13324 ft 318 kts 243°
2026-04-22 19:54 50.33746 9.30752 13322 ft 318 kts 243°
2026-04-22 19:55 50.32710 9.27700 13322 ft 318 kts 243°
2026-04-22 19:55 50.31671 9.24642 13323 ft 318 kts 243°
2026-04-22 19:55 50.30632 9.21584 13317 ft 318 kts 243°
2026-04-22 19:55 50.29594 9.18534 13317 ft 318 kts 243°
2026-04-22 19:56 50.28552 9.15483 13318 ft 318 kts 242°
2026-04-22 19:56 50.27511 9.12438 13320 ft 318 kts 243°
2026-04-22 19:56 50.26560 9.09333 13273 ft 316 kts 249°
2026-04-22 19:56 50.25783 9.06130 13010 ft 314 kts 251°
2026-04-22 19:57 50.25061 9.02916 12672 ft 312 kts 252°
2026-04-22 19:57 50.24349 8.99720 12306 ft 312 kts 251°
2026-04-22 19:57 50.23630 8.96535 11970 ft 310 kts 251°
2026-04-22 19:57 50.22907 8.93375 11632 ft 308 kts 251°
2026-04-22 19:58 50.22174 8.90179 11450 ft 314 kts 250°
2026-04-22 19:58 50.21421 8.86914 11470 ft 321 kts 251°
2026-04-22 19:58 50.20678 8.83738 11003 ft 312 kts 250°
2026-04-22 19:58 50.19920 8.80521 10591 ft 314 kts 250°
2026-04-22 19:59 50.19179 8.77393 10390 ft 303 kts 250°